Tracking 19176 objects as of 26-May-2018
HD Live streaming from Space Station
objects crossing your sky now

COSMOS 836

Track COSMOS 836 now!
10-day predictions
COSMOS 836 is classified as:


NORAD ID: 8923
Int'l Code: 1976-061A
Perigee: 775.4 km
Apogee: 801.7 km
Inclination: 74.1 °
Period: 100.5 minutes
Semi major axis: 7159 km
RCS: 1.916 m2 (large)
Launch date: June 29, 1976
Source: Commonwealth of Independent States (former USSR) (CIS)
Launch site: PLESETSK MISSILE AND SPACE COMPLEX (PKMTR)
aabbcc
Your satellite tracking list
Your tracking list is empty




NASA's NSSDC Master Catalog

Two Line Element Set (TLE):
1 08923U 76061A   18145.83434692  .00000019  00000-0  16265-4 0  9994
2 08923  74.0530 311.9239 0018374 201.3110 158.7278 14.33097884188611
Source of the keplerian elements: AFSPC